User: anonymous   Login
Location: Newark
(10.9667°N, 4.8167°W)
Time: 11:29:02
(UTC+00:00)
Language:

Hubble Space Telescope - Orbit

View from above orbital plane
View from above orbital plane
View from above satellite
View from above satellite

Ground track
Ground track

The orbit data is extracted from the following two-line orbital elements,

1 20580U 90037B   20019.00941216  .00000353  00000-0  10488-4 0  9995
2 20580  28.4683 234.6719 0002553 272.2823 235.5222 15.09327176433306
Epoch (UTC): 19 January 2020 00:13:33
Eccentricity: 0.0002553
inclination: 28.4683°
perigee height: 536 km
apogee height: 540 km
right ascension of ascending node: 234.6719°
argument of perigee: 272.2823°
revolutions per day: 15.09327176
mean anomaly at epoch: 235.5222°
orbit number at epoch: 43330

The dashed part of the orbit path shows where the satellite is in the earth's shadow,  

DLR